User: anonymous   Login
Location: Kra?nica
(53.4833°N, 14.6167°E)
Time: 07:44:45
(UTC+00:00)
Language:

MOZHAYETS 4 - Orbit

View from above orbital plane
View from above orbital plane
View from above satellite
View from above satellite

Ground track
Ground track

The orbit data is extracted from the following two-line orbital elements,

1 27939U 03042A   24280.90572479  .00006624  00000-0  10912-2 0  9991
2 27939  98.3053  79.0243 0012671  69.6304  83.6583 14.70795192124566
Epoch (UTC): 06 October 2024 21:44:14
Eccentricity: 0.0012671
inclination: 98.3053°
perigee height: 649 km
apogee height: 667 km
right ascension of ascending node: 79.0243°
argument of perigee: 69.6304°
revolutions per day: 14.70795192
mean anomaly at epoch: 83.6583°
orbit number at epoch: 12456

The dashed part of the orbit path shows where the satellite is in the earth's shadow,  

DLR